Location: ????????
(56.1167°N, 38.6333°E)
Time: 20:00:11
(UTC+00:00)

Cosmos 1802 Rocket - Pass Details

Date: 18 November 2025
Orbit: 953 x 1011 km, 82.9° (Epoch: 14 December)

Event Time Altitude Azimuth Distance (km) Brightness Sun altitude
Rises 14:26:30 0° 194° (SSW) 3,735 7.6 -10.1°
Reaches altitude 10° 14:29:02 10° 196° (SSW) 2,788 6.9 -10.4°
Maximum altitude 14:35:28 78° 282° (WNW) 1,037 4.3 -11.2°
Drops below altitude 10° 14:41:55 10° 10° (N) 2,789 6.1 -12.1°
Sets 14:44:27 0° 12° (NNE) 3,736 6.8 -12.4°
